Probability
1 0 0 0 0 0 0 0 0 0 0 0 0 0 0 0 0 0 0 0 0 0 0 0 0 0 0 0 0 0 0 0 0 0 0 0 0 0 0 0 0 0 0 0
1 0 0 0 0 0 0 0 0 0 0 0 0 0 0 0 0 0 0 0 0 0 0 0 0 0 0 0 0 0 0 0 0 0 0 0 0 0 0 0 0 0 0 0
1 0 0 0 0 0 0 0 0 0 0 0 0 0 0 0 0 0 0 0 0 0 0 0 0 0 0 0 0 0 0 0 0 0 0 0 0 0 0 0 0 0 0 0
0 0 0 0 0 0 0 0 0 0 0 0 0 0 0 0 0 0 0 0 0 0 0 0 0 0 0 0 0 0 0 0 0 0 0 0 0 0 0 0 0 0 0 0
0 0 0 0 0 0 0 0 0 0 0 0 0 0 0 0 0 0 0 0 0 0 0 0 0 0 0 0 0 0 0 0 0 0 0 0 0 0 0 0 0 0 0 0
0 0 0 0 0 0 0 0 0 0 0 0 0 0 0 0 0 0 0 0 0 0 0 0 0 0 0 0 0 0 0 0 0 0 0 0 0 0 0 0 0 0 0 0
0 0 0 0 0 0 0 0 0 0 0 0 0 0 0 0 0 0 0 0 0 0 0 0 0 0 0 0 0 0 0 0 0 0 0 0 0 0 0 0 0 0 0 0
0 0 0 0 0 0 0 0 0 0 0 0 0 0 0 0 0 0 0 0 0 0 0 0 0 0 0 0 0 0 0 0 0 0 0 0 0 0 0 0 0 0 0 0
0 0 0 0 0 0 0 0 0 0 0 0 0 0 0 0 0 0 0 0 0 0 0 0 0 0 0 0 0 0 0 0 0 0 0 0 0 0 0 0 0 0 0 0
0 0 0 0 0 0 0 0 0 0 0 0 0 0 0 0 0 0 0 0 0 0 0 0 0 0 0 0 0 0 0 0 0 0 0 0 0 0 0 0 0 0 0 0
0 0 0 0 0 0 0 0 0 0 0 0 0 0 0 0 0 0 0 0 0 0 0 0 0 0 0 0 0 0 0 0 0 0 0 0 0 0 0 0 0 0 0 0
0 0 0 0 0 0 0 0 0 0 0 0 0 0 0 0 0 0 0 0 0 0 0 0 0 0 0 0 0 0 0 0 0 0 0 0 0 0 0 0 0 0 0 0
0 0 0 0 0 0 0 0 0 0 0 0 0 0 0 0 0 0 0 0 0 0 0 0 0 0 0 0 0 0 0 0 0 0 0 0 0 0 0 0 0 0 0 0
0 0 0 0 0 0 0 0 0 0 0 0 0 0 0 0 0 0 0 0 0 0 0 0 0 0 0 0 0 0 0 0 0 0 0 0 0 0 0 0 0 0 0 0
0 0 0 0 0 0 0 0 0 0 0 0 0 0 0 0 0 0 0 0 0 0 0 0 0 0 0 0 0 0 0 0 0 0 0 0 0 0 0 0 0 0 0 0
0 0 0 0 0 0 0 0 0 0 0 0 0 0 0 0 0 0 0 0 0 0 0 0 0 0 0 0 0 0 0 0 0 0 0 0 0 0 0 0 0 0 0 0
0 0 0 0 0 0 0 0 0 0 0 0 0 0 0 0 0 0 0 0 0 0 0 0 0 0 0 0 0 0 0 0 0 0 0 0 0 0 0 0 0 0 0 0
0 0 0 0 0 0 0 0 0 0 0 0 0 0 0 0 0 0 0 0 0 0 0 0 0 0 0 0 0 0 0 0 0 0 0 0 0 0 0 0 0 0 0 0
0 0 0 0 0 0 0 0 0 0 0 0 0 0 0 0 0 0 0 0 0 0 0 0 0 0 0 0 0 0 0 0 0 0 0 0 0 0 0 0 0 0 0 0
0 0 0 0 0 0 0 0 0 0 0 0 0 0 0 0 0 0 0 0 0 0 0 0 0 0 0 0 0 0 0 0 0 0 0 0 0 0 0 0 0 0 0 0
0 0 0 0 0 0 0 0 0 0 0 0 0 0 0 0 0 0 0 0 0 0 0 0 0 0 0 0 0 0 0 0 0 0 0 0 0 0 0 0 0 0 0 0
0 0 0 0 0 0 0 0 0 0 0 0 0 0 0 0 0 0 0 0 0 0 0 0 0 0 0 0 0 0 0 0 0 0 0 0 0 0 0 0 0 0 0 0
0 0 0 0 0 0 0 0 0 0 0 0 0 0 0 0 0 0 0 0 0 0 0 0 0 0 0 0 0 0 0 0 0 0 0 0 0 0 0 0 0 0 0 0
0 0 0 0 0 0 0 0 0 0 0 0 0 0 0 0 0 0 0 0 0 0 0 0 0 0 0 0 0 0 0 0 0 0 0 0 0 0 0 0 0 0 0 0
0 0 0 0 0 0 0 0 0 0 0 0 0 0 0 0 0 0 0 0 0 0 0 0 0 0 0 0 0 0 0 0 0 0 0 0 0 0 0 0 0 0 0 0
0 0 0 0 0 0 0 0 0 0 0 0 0 0 0 0 0 0 0 0 0 0 0 0 0 0 0 0 0 0 0 0 0 0 0 0 0 0 0 0 0 0 0 0
Wind_Speed
9 9 15 16 15 5 7 7 8 6 5 7 10 15 15 9 7 9 10 10 11 14 13 10 11 11 11 11 13 14 15 14 12 10 10 10 10 8 8 8 9 10 9 10
8 17 14 9 10 7 7 8 7 3 2 5 7 14 14 11 11 12 13 13 14 12 10 10 10 11 14 15 16 16 17 15 15 13 11 7 6 6 8 7 9 11 11 11
18 8 11 10 10 14 12 11 9 5 0 2 4 11 12 10 9 11 12 13 13 14 15 12 11 13 13 16 17 16 18 17 17 14 7 5 4 4 6 8 10 11 12 12
15 8 10 12 14 14 16 8 8 6 4 4 4 10 10 9 10 13 15 14 15 16 15 13 12 12 15 17 16 17 17 17 16 15 12 14 13 13 13 9 9 9 12 12
13 12 14 17 14 14 5 8 8 7 6 5 5 8 11 4 11 12 15 17 18 17 16 15 14 14 14 14 14 15 16 17 16 16 18 17 16 14 8 7 9 11 11 12
6 6 11 11 9 11 7 6 3 3 4 13 13 10 13 9 11 8 10 13 16 16 14 14 12 10 11 11 12 13 15 16 16 17 18 19 19 16 11 11 11 11 9 10
10 7 6 6 9 11 10 8 6 8 10 11 8 11 16 9 10 12 12 13 14 12 11 11 10 10 11 11 12 13 15 17 16 17 19 20 20 18 18 15 13 11 9 10
15 13 14 10 12 13 18 14 11 9 7 4 6 14 13 7 8 8 9 9 9 9 9 10 10 9 9 10 11 12 15 16 15 17 18 18 18 15 13 15 12 12 11 11
13 11 7 11 7 13 13 14 7 3 2 3 8 10 12 6 7 8 10 10 12 12 11 10 9 8 8 9 10 12 13 14 14 15 16 16 16 16 15 13 12 10 9 8
5 6 6 7 6 9 9 9 7 9 8 8 7 9 11 6 10 11 11 13 15 12 10 9 7 7 7 7 7 8 10 12 12 12 12 11 14 15 15 12 12 11 11 10
5 5 5 10 16 18 12 13 9 8 7 8 7 12 10 12 13 14 16 15 13 11 10 8 6 5 5 4 5 6 7 8 8 9 10 10 11 11 12 12 13 12 10 10
8 5 7 11 6 9 11 13 14 11 9 7 6 15 6 10 10 11 12 11 9 8 7 6 5 4 4 4 5 5 6 7 7 6 7 8 8 7 8 10 11 10 10 10
10 8 7 6 6 8 11 11 15 9 5 7 8 17 3 6 7 8 9 9 7 7 6 4 4 4 5 5 5 5 5 6 5 5 5 6 6 7 8 8 8 7 8 9
8 7 10 13 8 9 13 16 18 15 12 12 16 22 13 7 8 8 8 8 7 6 6 5 5 6 6 5 5 5 5 5 4 5 5 5 6 6 6 5 5 5 6 7
6 7 8 9 7 6 9 16 21 23 21 17 19 26 28 14 10 9 8 8 7 8 8 8 8 7 6 5 5 5 5 4 4 5 5 5 4 3 3 3 3 3 4 4
7 5 5 10 10 9 12 15 20 24 23 21 18 25 28 16 7 9 9 8 10 11 11 10 8 7 7 7 6 5 5 5 5 5 5 4 3 3 3 3 2 2 2 2
5 5 5 8 7 7 17 19 21 20 22 24 27 32 22 14 14 15 13 12 14 13 12 10 10 9 8 8 7 7 6 5 5 5 4 4 4 4 3 3 3 3 2 2
7 6 4 5 5 17 14 11 16 20 23 23 22 24 23 21 15 11 13 14 14 13 12 11 9 8 8 6 5 5 5 6 6 5 5 4 5 4 4 3 3 3 2 2
9 8 5 5 9 11 9 9 15 19 23 23 24 27 24 16 8 13 14 13 15 14 12 11 10 9 7 7 6 6 6 6 6 6 6 5 6 6 5 5 4 3 3 2
11 9 7 7 8 10 12 9 9 10 18 16 18 24 22 11 12 21 12 10 12 12 10 9 8 6 6 6 7 8 7 7 7 7 6 5 5 6 6 5 4 3 3 3
8 10 13 12 10 10 11 5 8 12 16 12 14 18 17 16 20 18 8 9 11 10 9 8 7 7 7 6 8 8 8 8 7 5 5 5 5 5 5 4 3 4 4 4
9 8 10 9 11 13 6 6 11 10 7 6 7 10 12 14 15 12 9 8 7 7 6 6 5 5 4 5 8 8 8 6 6 6 6 5 5 4 4 5 4 4 5 5
8 8 6 9 9 5 2 5 4 3 5 6 6 8 9 12 12 11 9 8 6 6 6 5 6 5 3 4 6 8 6 6 7 7 6 5 5 4 5 6 6 4 4 4
4 2 4 6 8 5 4 3 4 5 6 7 7 8 7 9 10 9 7 6 4 4 4 4 5 6 4 3 3 4 5 6 7 8 7 6 6 6 5 4 4 4 4 4
4 3 4 8 7 6 4 4 6 8 7 8 8 6 6 7 8 6 5 4 3 2 2 4 5 6 5 4 3 3 4 6 7 8 7 6 6 6 6 4 3 4 2 3
3 4 6 8 3 4 7 5 7 8 8 8 8 8 7 5 7 5 4 2 1 1 2 2 3 4 4 4 4 3 3 5 8 8 7 6 5 5 5 6 5 7 7 8
Wind_Direction
177 197 208 204 204 201 176 183 204 215 203 192 229 248 256 247 238 244 245 242 239 241 244 236 225 217 211 207 206 206 205 204 197 199 204 207 212 209 208 208 205 202 201 198
185 217 214 193 195 200 199 208 215 244 195 204 249 259 259 244 232 233 238 240 241 244 248 237 225 215 212 211 210 210 209 205 202 205 204 202 201 208 211 207 207 206 204 202
206 213 184 178 189 205 215 212 202 201 10 262 302 282 256 251 232 237 238 239 240 237 240 238 226 219 214 213 211 211 211 208 206 203 192 184 183 192 203 210 213 211 209 207
218 207 179 188 199 197 224 198 185 181 184 240 203 272 262 244 246 238 240 240 241 241 239 235 228 222 216 217 213 212 211 209 206 199 198 199 207 216 217 212 211 207 207 210
209 184 186 201 200 184 194 162 181 195 205 241 210 252 268 225 248 243 237 239 241 241 237 236 230 226 221 216 212 211 210 210 204 201 204 207 216 223 216 201 206 208 208 211
213 183 189 200 186 173 135 127 144 181 205 242 219 223 265 215 226 236 235 238 241 242 240 239 237 230 227 217 211 209 208 211 206 203 206 211 217 219 212 208 212 213 212 212
205 208 196 151 151 163 165 163 196 206 213 238 181 210 251 219 215 216 225 233 237 240 240 242 240 232 227 217 210 207 207 212 207 205 208 213 218 219 220 218 217 214 214 216
200 208 192 183 181 183 190 187 199 207 210 236 177 227 252 227 231 233 240 246 251 248 241 239 237 232 228 221 212 206 208 212 207 206 211 214 217 219 223 223 220 217 220 220
199 216 176 188 172 164 180 201 189 164 146 233 231 262 291 253 259 251 249 251 251 248 242 241 241 234 228 221 214 209 208 211 208 208 211 214 216 218 222 222 220 221 221 217
174 200 187 171 154 191 182 161 164 194 194 224 244 241 242 216 226 236 240 241 244 246 247 245 239 234 230 223 216 207 208 211 210 207 209 214 217 219 222 221 220 219 219 213
180 189 183 175 191 189 176 184 188 193 194 200 239 251 219 203 206 218 229 234 237 239 240 241 235 229 227 222 213 207 207 210 210 208 209 212 217 218 219 222 224 223 220 214
185 189 214 213 215 196 189 194 188 202 204 201 232 261 207 201 212 219 233 240 240 238 239 240 236 227 220 217 211 208 207 208 211 208 207 212 216 213 216 222 225 221 221 218
171 192 204 205 213 199 206 199 201 209 188 197 217 259 220 199 218 227 236 247 247 244 244 244 234 228 227 223 215 211 210 211 207 196 199 207 210 211 216 221 222 219 221 222
177 203 214 217 202 186 202 205 202 204 220 224 227 253 258 236 240 247 246 248 249 247 241 240 242 237 230 225 220 215 217 208 196 187 191 201 208 210 215 217 217 216 217 221
188 217 227 241 235 208 214 212 209 212 219 226 235 244 254 241 228 234 238 244 252 256 249 239 236 235 229 224 223 215 212 199 183 179 190 204 201 193 191 197 203 205 210 219
190 210 222 245 235 226 238 227 220 219 222 230 244 254 254 249 222 231 232 230 237 243 242 240 236 230 225 221 217 210 208 193 173 179 191 188 173 170 176 184 182 186 202 205
185 181 205 239 231 232 238 223 220 223 221 221 232 243 252 250 226 222 222 222 229 233 235 234 231 226 223 218 207 204 199 172 169 179 179 175 172 171 175 166 164 178 183 173
185 190 211 233 218 237 240 216 213 226 233 228 233 245 246 245 242 230 219 220 229 229 229 231 229 226 223 215 199 185 167 163 171 178 180 176 170 171 163 156 168 171 157 160
199 188 200 215 236 252 263 222 201 212 233 227 231 244 252 257 270 257 233 222 226 227 225 226 224 220 215 203 185 165 168 168 172 183 186 181 173 170 165 168 172 165 150 147
206 200 204 215 226 233 238 224 202 201 243 234 228 241 249 242 245 256 240 221 230 229 223 220 214 208 204 201 172 166 174 174 188 191 186 174 169 169 170 169 160 149 143 140
188 204 216 223 236 252 251 229 149 192 236 240 228 237 242 231 238 259 252 227 226 224 220 212 201 201 206 186 167 174 177 190 190 170 160 157 159 162 161 149 138 136 132 126
185 195 208 212 225 242 235 163 185 223 258 271 256 245 249 255 260 265 257 244 233 225 218 199 191 205 193 171 169 178 190 185 156 150 152 152 150 146 141 136 130 130 133 130
200 201 199 206 224 242 175 200 235 281 266 264 270 271 262 262 261 261 256 246 235 219 207 188 182 185 178 167 170 180 184 157 151 148 149 146 138 133 135 139 141 138 137 138
240 231 209 240 253 262 267 274 302 308 291 292 290 288 278 266 268 269 261 252 235 221 202 178 168 173 184 175 166 174 158 152 150 149 148 146 144 137 130 129 136 141 149 148
224 211 219 241 266 293 267 275 297 304 308 311 312 303 290 283 280 271 267 257 234 217 196 174 176 180 181 158 151 142 147 151 150 149 148 147 144 141 134 124 119 128 121 138
209 212 218 240 253 255 270 300 315 306 303 305 309 311 307 282 276 278 271 270 246 201 172 159 157 161 156 144 141 130 141 153 152 152 153 151 146 142 138 132 111 87 96 97